Test XHTML 1.0 Strict Page for WU-History Testing
Histórico de la Estación METEOABEGONDO
 
Diario Datos del Octubre 17, 2017 Unidades:  Metrico    Inglés   Ambos
« Prev Dia
Sig Dia »
Diario Semanal Mensual Anual Rango
  Actual: Max: Min: Media:
Temp: 12.8 °C 13.0 °C 12.8 °C 12.9 °C
Rocío: 12.4 °C 12.6 °C 12.2 °C 12.4 °C
Humedad: 97 % 97 % 96 % 97 %
Vel. viento: 0.0 km/h 5.6 km/h 0.0 km/h 0.2 km/h
Racha: 0.0 km/h 5.6 km/h - -
Viento:Calm - - SSE
Presión: 1017.5 hPa 1019.9 hPa 1017.5 hPa -
Lluvia: 7.1 mm      
Historical Graphs
 
 
Busqueda de Octubre 17, 2017
Hora Temp Rocío Presión Viento Vel. viento Racha Humedad Ratio lluvia (/hora) Radiación
00:00 12.8 °C 12.2 °C 1019.9 hPa Calm     96 % 0.0 mm 0.0 W/m2
00:05 12.8 °C 12.2 °C 1019.5 hPa Calm     96 % 0.0 mm 0.0 W/m2
00:12 12.8 °C 12.2 °C 1019.9 hPa Calm     96 % 0.0 mm 0.0 W/m2
00:17 12.8 °C 12.2 °C 1019.9 hPa Calm     96 % 0.0 mm 0.0 W/m2
00:24 12.8 °C 12.2 °C 1019.9 hPa Calm     96 % 0.0 mm 0.0 W/m2
00:29 12.8 °C 12.2 °C 1019.5 hPa Calm     96 % 0.0 mm 0.0 W/m2
00:34 12.8 °C 12.2 °C 1019.5 hPa Calm     96 % 0.0 mm 0.0 W/m2
00:39 12.8 °C 12.2 °C 1019.5 hPa Calm     96 % 0.0 mm 0.0 W/m2
00:44 12.9 °C 12.3 °C 1019.5 hPa Calm     96 % 0.0 mm 0.0 W/m2
00:49 12.9 °C 12.3 °C 1019.2 hPa Calm     96 % 0.0 mm 0.0 W/m2
00:54 12.9 °C 12.3 °C 1019.2 hPa Calm     96 % 0.0 mm 0.0 W/m2
00:58 13.0 °C 12.4 °C 1019.5 hPa Calm     96 % 0.3 mm 0.0 W/m2
01:03 12.9 °C 12.3 °C 1019.2 hPa Calm     96 % 0.3 mm 0.0 W/m2
01:08 12.9 °C 12.3 °C 1019.2 hPa Calm     96 % 0.3 mm 0.0 W/m2
01:13 12.9 °C 12.3 °C 1019.2 hPa Calm     96 % 0.3 mm 0.0 W/m2
01:18 12.9 °C 12.3 °C 1019.2 hPa Calm     96 % 0.5 mm 0.0 W/m2
01:23 12.9 °C 12.3 °C 1019.2 hPa Calm     96 % 0.5 mm 0.0 W/m2
01:28 12.9 °C 12.3 °C 1018.8 hPa Calm     96 % 0.5 mm 0.0 W/m2
01:33 12.9 °C 12.3 °C 1018.8 hPa Calm     96 % 0.5 mm 0.0 W/m2
01:38 12.9 °C 12.5 °C 1018.8 hPa Calm     97 % 0.5 mm 0.0 W/m2
01:43 12.9 °C 12.3 °C 1018.8 hPa Calm     96 % 0.5 mm 0.0 W/m2
01:48 12.9 °C 12.5 °C 1018.5 hPa Calm     97 % 0.5 mm 0.0 W/m2
01:53 12.9 °C 12.5 °C 1018.5 hPa Calm     97 % 0.5 mm 0.0 W/m2
01:58 12.9 °C 12.5 °C 1018.5 hPa Calm     97 % 0.3 mm 0.0 W/m2
02:03 12.9 °C 12.5 °C 1018.5 hPa Calm     97 % 0.3 mm 0.0 W/m2
02:08 12.8 °C 12.4 °C 1018.2 hPa Calm     97 % 0.3 mm 0.0 W/m2
02:09 12.8 °C 12.4 °C 1018.2 hPa Calm     97 % 0.3 mm 0.0 W/m2
02:14 12.8 °C 12.4 °C 1018.2 hPa Calm     97 % 0.0 mm 0.0 W/m2
02:19 12.8 °C 12.4 °C 1018.2 hPa Calm     97 % 0.0 mm 0.0 W/m2
02:24 12.8 °C 12.4 °C 1018.2 hPa Calm     97 % 0.0 mm 0.0 W/m2
02:29 12.8 °C 12.4 °C 1017.8 hPa Calm     97 % 0.0 mm 0.0 W/m2
02:34 12.8 °C 12.4 °C 1018.2 hPa Calm     97 % 0.0 mm 0.0 W/m2
02:39 12.8 °C 12.4 °C 1017.8 hPa Calm     97 % 0.0 mm 0.0 W/m2
02:44 12.8 °C 12.4 °C 1017.8 hPa Calm     97 % 0.0 mm 0.0 W/m2
02:49 12.8 °C 12.4 °C 1017.8 hPa Calm     97 % 0.0 mm 0.0 W/m2
02:54 12.8 °C 12.4 °C 1017.8 hPa Calm     97 % 0.0 mm 0.0 W/m2
02:59 12.9 °C 12.5 °C 1017.8 hPa Calm     97 % 0.8 mm 0.0 W/m2
03:04 13.0 °C 12.6 °C 1018.5 hPa SSE 5.6 km/h 5.6 km/h 97 % 1.5 mm 0.0 W/m2
03:09 12.9 °C 12.5 °C 1018.2 hPa SSE 3.7 km/h 3.7 km/h 97 % 3.3 mm 0.0 W/m2
03:14 12.9 °C 12.5 °C 1017.8 hPa Calm     97 % 4.1 mm 0.0 W/m2
03:19 12.9 °C 12.5 °C 1017.5 hPa Calm     97 % 4.3 mm 0.0 W/m2
03:24 12.9 °C 12.5 °C 1017.5 hPa Calm     97 % 4.3 mm 0.0 W/m2
03:29 12.9 °C 12.5 °C 1017.5 hPa Calm     97 % 4.6 mm 0.0 W/m2
03:34 12.9 °C 12.5 °C 1017.5 hPa Calm     97 % 5.3 mm 0.0 W/m2
03:39 12.9 °C 12.5 °C 1017.5 hPa SSE 1.6 km/h   97 % 6.1 mm 0.0 W/m2
03:44 12.8 °C 12.4 °C 1017.5 hPa Calm     97 % 6.6 mm 0.0 W/m2
Meteoabegondo
Agradecimientos a Weather Underground - 1.5 mb